TimeEDT,TemperatureF,Dew PointF,Humidity,Sea Level PressureIn,VisibilityMPH,Wind Direction,Wind SpeedMPH,Gust SpeedMPH,PrecipitationIn,Events,Conditions,WindDirDegrees,DateUTC
12:53 AM,57.0,54.0,89,30.15,10.0,Calm,Calm,-,N/A,,Clear,0,2012-10-05 04:53:00
1:53 AM,54.0,52.0,93,30.15,6.0,Calm,Calm,-,N/A,,Clear,0,2012-10-05 05:53:00
2:53 AM,54.0,52.0,93,30.13,7.0,Calm,Calm,-,N/A,,Clear,0,2012-10-05 06:53:00
4:53 AM,52.0,50.0,93,30.12,3.0,Calm,Calm,-,N/A,,Clear,0,2012-10-05 08:53:00
5:53 AM,54.0,53.1,97,30.14,6.0,WNW,3.5,-,N/A,,Clear,300,2012-10-05 09:53:00
6:53 AM,53.1,51.1,93,30.13,5.0,Calm,Calm,-,N/A,,Clear,0,2012-10-05 10:53:00
7:53 AM,54.0,53.1,97,30.14,4.0,Calm,Calm,-,N/A,,Clear,0,2012-10-05 11:53:00
8:53 AM,59.0,57.0,93,30.14,5.0,Calm,Calm,-,N/A,,Clear,0,2012-10-05 12:53:00
9:53 AM,63.0,57.0,81,30.13,8.0,Calm,Calm,-,N/A,,Clear,0,2012-10-05 13:53:00
10:53 AM,66.0,57.0,73,30.13,9.0,Calm,Calm,-,N/A,,Partly Cloudy,0,2012-10-05 14:53:00
11:53 AM,68.0,57.9,70,30.13,10.0,Variable,5.8,-,N/A,,Clear,0,2012-10-05 15:53:00
1:53 PM,72.0,57.9,61,30.08,10.0,WSW,5.8,-,N/A,,Partly Cloudy,250,2012-10-05 17:53:00
2:53 PM,73.9,57.9,57,30.03,10.0,SW,4.6,-,N/A,,Partly Cloudy,230,2012-10-05 18:53:00
3:53 PM,75.0,59.0,57,30.01,10.0,SSW,5.8,-,N/A,,Mostly Cloudy,200,2012-10-05 19:53:00
4:53 PM,75.0,57.9,55,30.00,10.0,SW,6.9,16.1,N/A,,Mostly Cloudy,230,2012-10-05 20:53:00
5:35 PM,64.4,55.4,73,30.02,10.0,NW,16.1,20.7,N/A,,Overcast,310,2012-10-05 21:35:00
5:53 PM,61.0,53.1,75,30.02,10.0,NW,10.4,-,N/A,,Overcast,310,2012-10-05 21:53:00
6:53 PM,59.0,51.1,75,29.99,10.0,Calm,Calm,-,N/A,,Overcast,0,2012-10-05 22:53:00
7:53 PM,52.0,48.9,89,30.03,10.0,Variable,6.9,-,0.03,Rain,Light Rain,0,2012-10-05 23:53:00
8:06 PM,51.8,48.2,88,30.05,10.0,NNW,10.4,16.1,0.01,Rain,Light Rain,330,2012-10-06 00:06:00
8:42 PM,48.2,44.6,87,30.05,10.0,NW,9.2,18.4,0.02,Rain,Light Rain,320,2012-10-06 00:42:00
8:53 PM,48.9,45.0,86,30.06,9.0,NNW,5.8,-,0.03,Rain,Light Rain,330,2012-10-06 00:53:00
9:37 PM,48.2,44.6,87,30.04,10.0,NNW,10.4,-,0.03,,Overcast,340,2012-10-06 01:37:00
9:53 PM,48.0,44.1,86,30.03,10.0,North,9.2,-,0.03,,Overcast,350,2012-10-06 01:53:00
10:36 PM,46.4,44.6,93,30.05,4.0,North,5.8,-,0.08,Rain,Rain,350,2012-10-06 02:36:00
10:53 PM,45.0,43.0,93,30.02,6.0,NNE,8.1,-,0.10,Rain,Rain,30,2012-10-06 02:53:00
11:00 PM,44.6,42.8,93,30.03,5.0,North,8.1,-,0.02,Rain,Rain,10,2012-10-06 03:00:00
11:19 PM,44.6,42.8,93,30.09,3.0,WNW,10.4,-,0.08,Rain,Heavy Rain,300,2012-10-06 03:19:00
11:42 PM,44.6,42.8,93,30.07,4.0,NW,10.4,-,0.17,Rain,Rain,320,2012-10-06 03:42:00
11:50 PM,44.6,42.8,93,30.07,5.0,NNW,9.2,-,0.19,Rain,Heavy Rain,330,2012-10-06 03:50:00
11:53 PM,45.0,42.1,90,30.08,5.0,NW,9.2,-,0.20,Rain,Rain,320,2012-10-06 03:53:00